START_TIME,STEP,MOV.,A46,t_acc.,A13,t_acc.,M47,t_acc.,A17,t_acc.,A28,t_acc.,M38,t_acc.
1979-07-12 18:00:25.870 ,0,1,,0,176.,4.8,25.,4.8,,0,0.,4.8,68.,4.8
1979-07-12 18:00:30.670 ,0,1,,0,148.,4.8,17.,4.8,,0,0.,4.8,59.,4.8
1979-07-12 18:00:35.470 ,0,1,,0,102.,4.8,14.,4.8,,0,0.,4.8,32.,4.8
1979-07-12 18:00:40.270 ,0,1,,0,0.,4.8,0.,4.8,,0,0.,4.8,33.,4.8
1979-07-12 18:00:45.070 ,0,1,,0,0.,4.8,0.,4.8,,0,0.,4.8,44.,4.8
1979-07-12 18:00:49.870 ,4,1,,0,0.,4.8,0.,4.8,,0,0.,4.8,36.,4.8
1979-07-12 18:00:54.670 ,4,1,,0,0.,4.8,0.,4.8,,0,0.,4.8,59.,4.8
1979-07-12 18:00:59.470 ,4,1,,0,27.,4.8,1.,4.8,,0,0.,4.8,55.,4.8
1979-07-12 18:01:04.270 ,4,1,,0,196.,4.8,20.,4.8,,0,0.,4.8,80.,4.8
1979-07-12 18:01:09.070 ,4,1,,0,208.,4.8,32.,4.8,,0,0.,4.8,96.,4.8
1979-07-12 18:01:13.870 ,7,1,,0,256.,4.8,25.,4.8,,0,0.,4.8,98.,4.8
1979-07-12 18:01:18.670 ,7,1,,0,220.,4.8,27.,4.8,,0,0.,4.8,106.,4.8
1979-07-12 18:01:23.470 ,7,1,,0,156.,4.8,32.,4.8,,0,0.,4.8,62.,4.8
1979-07-12 18:01:28.270 ,7,1,,0,1.,4.8,0.,4.8,,0,0.,4.8,0.,4.8
1979-07-12 18:01:33.070 ,7,1,,0,0.,4.8,0.,4.8,,0,0.,4.8,0.,4.8
1979-07-12 18:01:37.870 ,3,1,,0,0.,4.8,0.,4.8,,0,0.,4.8,48.,4.8
1979-07-12 18:01:42.670 ,3,1,,0,0.,4.8,0.,4.8,,0,0.,4.8,82.,4.8
1979-07-12 18:01:47.470 ,3,1,,0,45.,4.8,2.,4.8,,0,0.,4.8,106.,4.8
1979-07-12 18:01:52.270 ,3,1,,0,224.,4.8,26.,4.8,,0,0.,4.8,108.,4.8
1979-07-12 18:01:57.070 ,3,1,,0,220.,4.8,24.,4.8,,0,0.,4.8,74.,4.8
1979-07-12 18:02:01.870 ,0,1,,0,148.,4.8,23.,4.8,,0,0.,4.8,56.,4.8
1979-07-12 18:02:06.670 ,0,1,,0,156.,4.8,31.,4.8,,0,0.,4.8,49.,4.8
1979-07-12 18:02:11.470 ,0,1,,0,104.,4.8,13.,4.8,,0,0.,4.8,44.,4.8
1979-07-12 18:02:16.270 ,0,1,,0,0.,4.8,0.,4.8,,0,0.,4.8,39.,4.8
1979-07-12 18:02:21.070 ,0,1,,0,0.,4.8,0.,4.8,,0,0.,4.8,38.,4.8
1979-07-12 18:02:25.870 ,4,1,,0,0.,4.8,0.,4.8,,0,0.,4.8,31.,4.8
1979-07-12 18:02:30.670 ,4,1,,0,0.,4.8,0.,4.8,,0,0.,4.8,51.,4.8
1979-07-12 18:02:35.470 ,4,1,,0,24.,4.8,4.,4.8,,0,0.,4.8,68.,4.8
1979-07-12 18:02:40.270 ,4,1,,0,196.,4.8,25.,4.8,,0,0.,4.8,72.,4.8
1979-07-12 18:02:45.070 ,4,1,,0,220.,4.8,27.,4.8,,0,0.,4.8,104.,4.8
1979-07-12 18:02:49.870 ,7,1,,0,228.,4.8,39.,4.8,,0,0.,4.8,114.,4.8
1979-07-12 18:02:54.670 ,7,1,,0,240.,4.8,44.,4.8,,0,0.,4.8,118.,4.8
1979-07-12 18:02:59.470 ,7,1,,0,172.,4.8,24.,4.8,,0,0.,4.8,74.,4.8
1979-07-12 18:03:04.270 ,7,1,,0,0.,4.8,0.,4.8,,0,0.,4.8,0.,4.8
1979-07-12 18:03:09.070 ,7,1,,0,0.,4.8,0.,4.8,,0,0.,4.8,0.,4.8
1979-07-12 18:03:13.870 ,3,1,,0,0.,4.8,0.,4.8,,0,0.,4.8,44.,4.8
1979-07-12 18:03:18.670 ,3,1,,0,0.,4.8,0.,4.8,,0,0.,4.8,82.,4.8
1979-07-12 18:03:23.470 ,3,1,,0,42.,4.8,8.,4.8,,0,0.,4.8,88.,4.8
1979-07-12 18:03:28.270 ,3,1,,0,252.,4.8,22.,4.8,,0,0.,4.8,88.,4.8
1979-07-12 18:03:33.070 ,3,1,,0,176.,4.8,19.,4.8,,0,0.,4.8,56.,4.8
1979-07-12 18:03:37.870 ,0,1,,0,192.,4.8,25.,4.8,,0,0.,4.8,59.,4.8
1979-07-12 18:03:42.670 ,0,1,,0,164.,4.8,14.,4.8,,0,0.,4.8,53.,4.8
1979-07-12 18:03:47.470 ,0,1,,0,116.,4.8,15.,4.8,,0,0.,4.8,37.,4.8
1979-07-12 18:03:52.270 ,0,1,,0,0.,4.8,0.,4.8,,0,0.,4.8,33.,4.8
1979-07-12 18:03:57.070 ,0,1,,0,0.,4.8,0.,4.8,,0,0.,4.8,26.,4.8
1979-07-12 18:04:01.870 ,4,1,,0,1.,4.8,0.,4.8,,0,0.,4.8,54.,4.8
1979-07-12 18:04:06.670 ,4,1,,0,1.,4.8,0.,4.8,,0,0.,4.8,44.,4.8
1979-07-12 18:04:11.470 ,4,1,,0,27.,4.8,1.,4.8,,0,0.,4.8,58.,4.8
1979-07-12 18:04:16.270 ,4,1,,0,184.,4.8,25.,4.8,,0,0.,4.8,92.,4.8
1979-07-12 18:04:21.070 ,4,1,,0,220.,4.8,27.,4.8,,0,0.,4.8,92.,4.8
1979-07-12 18:04:25.870 ,7,1,,0,224.,4.8,35.,4.8,,0,0.,4.8,84.,4.8
1979-07-12 18:04:30.670 ,7,1,,0,204.,4.8,30.,4.8,,0,0.,4.8,72.,4.8
1979-07-12 18:04:35.470 ,7,1,,0,152.,4.8,16.,4.8,,0,0.,4.8,92.,4.8
1979-07-12 18:04:40.270 ,7,1,,0,0.,4.8,0.,4.8,,0,0.,4.8,0.,4.8
1979-07-12 18:04:45.070 ,7,1,,0,1.,4.8,0.,4.8,,0,0.,4.8,0.,4.8
1979-07-12 18:04:49.870 ,3,1,,0,0.,4.8,0.,4.8,,0,0.,4.8,33.,4.8
1979-07-12 18:04:54.670 ,3,1,,0,0.,4.8,0.,4.8,,0,0.,4.8,72.,4.8
1979-07-12 18:04:59.470 ,3,1,,0,39.,4.8,2.,4.8,,0,0.,4.8,94.,4.8
1979-07-12 18:05:04.270 ,3,1,,0,208.,4.8,23.,4.8,,0,0.,4.8,90.,4.8
1979-07-12 18:05:09.070 ,3,1,,0,200.,4.8,25.,4.8,,0,0.,4.8,86.,4.8
1979-07-12 18:05:13.870 ,0,1,,0,156.,4.8,26.,4.8,,0,0.,4.8,62.,4.8
1979-07-12 18:05:18.670 ,0,1,,0,144.,4.8,23.,4.8,,0,0.,4.8,51.,4.8
1979-07-12 18:05:23.470 ,0,1,,0,122.,4.8,18.,4.8,,0,0.,4.8,55.,4.8
1979-07-12 18:05:28.270 ,0,1,,0,0.,4.8,0.,4.8,,0,0.,4.8,32.,4.8
1979-07-12 18:05:33.070 ,0,1,,0,0.,4.8,0.,4.8,,0,0.,4.8,34.,4.8
1979-07-12 18:05:37.870 ,0,0,,0,0.,4.8,0.,4.8,,0,0.,4.8,34.,4.8
1979-07-12 18:05:42.670 ,0,0,,0,0.,4.8,0.,4.8,,0,0.,4.8,57.,4.8
1979-07-12 18:05:47.470 ,0,0,,0,26.,4.8,0.,4.8,,0,0.,4.8,62.,4.8
1979-07-12 18:05:52.270 ,0,0,,0,176.,4.8,21.,4.8,,0,0.,4.8,90.,4.8
1979-07-12 18:05:57.070 ,0,0,,0,216.,4.8,30.,4.8,,0,0.,4.8,82.,4.8
1979-07-12 18:06:01.870 ,0,0,,0,212.,4.8,33.,4.8,,0,0.,4.8,108.,4.8
1979-07-12 18:06:06.670 ,0,0,,0,192.,4.8,21.,4.8,,0,0.,4.8,82.,4.8
1979-07-12 18:06:11.470 ,0,0,,0,144.,4.8,18.,4.8,,0,0.,4.8,59.,4.8
1979-07-12 18:06:16.270 ,0,0,,0,0.,4.8,0.,4.8,,0,0.,4.8,0.,4.8
1979-07-12 18:06:21.070 ,0,0,,0,0.,4.8,0.,4.8,,0,0.,4.8,0.,4.8
1979-07-12 18:06:25.870 ,5,0,,0,0.,4.8,0.,4.8,,0,0.,4.8,42.,4.8
1979-07-12 18:06:30.670 ,5,0,,0,0.,4.8,0.,4.8,,0,0.,4.8,86.,4.8
1979-07-12 18:06:35.470 ,5,0,,0,34.,4.8,4.,4.8,,0,0.,4.8,96.,4.8
1979-07-12 18:06:40.270 ,5,0,,0,224.,4.8,23.,4.8,,0,0.,4.8,96.,4.8
1979-07-12 18:06:45.070 ,5,0,,0,256.,4.8,45.,4.8,,0,0.,4.8,88.,4.8
1979-07-12 18:06:49.870 ,5,0,,0,228.,4.8,29.,4.8,,0,0.,4.8,78.,4.8
1979-07-12 18:06:54.670 ,5,0,,0,220.,4.8,32.,4.8,,0,0.,4.8,86.,4.8
1979-07-12 18:06:59.470 ,5,0,,0,184.,4.8,24.,4.8,,0,0.,4.8,98.,4.8
1979-07-12 18:07:04.270 ,5,0,,0,0.,4.8,0.,4.8,,0,0.,4.8,90.,4.8
1979-07-12 18:07:09.070 ,5,0,,0,1.,4.8,0.,4.8,,0,0.,4.8,90.,4.8
1979-07-12 18:07:13.870 ,4,0,,0,0.,4.8,0.,4.8,,0,0.,4.8,104.,4.8
1979-07-12 18:07:18.670 ,4,0,,0,0.,4.8,0.,4.8,,0,0.,4.8,82.,4.8
1979-07-12 18:07:23.470 ,4,0,,0,32.,4.8,4.,4.8,,0,0.,4.8,94.,4.8
1979-07-12 18:07:28.270 ,4,0,,0,216.,4.8,23.,4.8,,0,0.,4.8,92.,4.8
1979-07-12 18:07:33.070 ,4,0,,0,204.,4.8,14.,4.8,,0,0.,4.8,96.,4.8
1979-07-12 18:07:37.870 ,4,0,,0,224.,4.8,30.,4.8,,0,0.,4.8,100.,4.8
1979-07-12 18:07:42.670 ,4,0,,0,208.,4.8,20.,4.8,,0,0.,4.8,92.,4.8
1979-07-12 18:07:47.470 ,4,0,,0,156.,4.8,25.,4.8,,0,0.,4.8,88.,4.8
1979-07-12 18:07:52.270 ,4,0,,0,0.,4.8,0.,4.8,,0,0.,4.8,82.,4.8
1979-07-12 18:07:57.070 ,4,0,,0,0.,4.8,0.,4.8,,0,0.,4.8,80.,4.8
1979-07-12 18:08:01.870 ,3,0,,0,0.,4.8,0.,4.8,,0,0.,4.8,94.,4.8
1979-07-12 18:08:06.670 ,3,0,,0,0.,4.8,0.,4.8,,0,0.,4.8,90.,4.8
1979-07-12 18:08:11.470 ,3,0,,0,23.,4.8,4.,4.8,,0,0.,4.8,86.,4.8
1979-07-12 18:08:16.270 ,3,0,,0,184.,4.8,24.,4.8,,0,0.,4.8,72.,4.8
1979-07-12 18:08:21.070 ,3,0,,0,152.,4.8,20.,4.8,,0,0.,4.8,70.,4.8
1979-07-12 18:08:25.870 ,3,0,,0,176.,4.8,25.,4.8,,0,0.,4.8,76.,4.8
1979-07-12 18:08:30.670 ,3,0,,0,172.,4.8,23.,4.8,,0,0.,4.8,84.,4.8
1979-07-12 18:08:35.470 ,3,0,,0,128.,4.8,16.,4.8,,0,0.,4.8,80.,4.8
1979-07-12 18:08:40.270 ,3,0,,0,1.,4.8,0.,4.8,,0,0.,4.8,92.,4.8
1979-07-12 18:08:45.070 ,3,0,,0,0.,4.8,0.,4.8,,0,0.,4.8,76.,4.8
1979-07-12 18:08:49.870 ,2,0,,0,0.,4.8,0.,4.8,,0,0.,4.8,68.,4.8
1979-07-12 18:08:54.670 ,2,0,,0,0.,4.8,0.,4.8,,0,0.,4.8,76.,4.8
1979-07-12 18:08:59.470 ,2,0,,0,29.,4.8,2.,4.8,,0,0.,4.8,52.,4.8
1979-07-12 18:09:04.270 ,2,0,,0,160.,4.8,18.,4.8,,0,0.,4.8,64.,4.8
1979-07-12 18:09:09.070 ,2,0,,0,152.,4.8,19.,4.8,,0,0.,4.8,43.,4.8
1979-07-12 18:09:13.870 ,2,0,,0,136.,4.8,18.,4.8,,0,0.,4.8,59.,4.8
1979-07-12 18:09:18.670 ,2,0,,0,144.,4.8,13.,4.8,,0,0.,4.8,61.,4.8
1979-07-12 18:09:23.470 ,2,0,,0,122.,4.8,13.,4.8,,0,0.,4.8,63.,4.8
1979-07-12 18:09:28.270 ,2,0,,0,0.,4.8,0.,4.8,,0,0.,4.8,49.,4.8
1979-07-12 18:09:33.070 ,2,0,,0,1.,4.8,0.,4.8,,0,0.,4.8,74.,4.8
1979-07-12 18:09:37.870 ,1,0,,0,1.,4.8,0.,4.8,,0,0.,4.8,52.,4.8
1979-07-12 18:09:42.670 ,1,0,,0,1.,4.8,0.,4.8,,0,0.,4.8,70.,4.8
1979-07-12 18:09:47.470 ,1,0,,0,17.,4.8,5.,4.8,,0,0.,4.8,33.,4.8
1979-07-12 18:09:52.270 ,1,0,,0,106.,4.8,13.,4.8,,0,0.,4.8,46.,4.8
1979-07-12 18:09:57.070 ,1,0,,0,110.,4.8,14.,4.8,,0,0.,4.8,46.,4.8
1979-07-12 18:10:01.870 ,1,0,,0,102.,4.8,12.,4.8,,0,0.,4.8,26.,4.8
1979-07-12 18:10:06.670 ,1,0,,0,116.,4.8,13.,4.8,,0,0.,4.8,37.,4.8
1979-07-12 18:10:11.470 ,1,0,,0,92.,4.8,10.,4.8,,0,0.,4.8,40.,4.8
1979-07-12 18:10:16.270 ,1,0,,0,1.,4.8,0.,4.8,,0,0.,4.8,37.,4.8
1979-07-12 18:10:21.070 ,1,0,,0,1.,4.8,0.,4.8,,0,0.,4.8,36.,4.8
1979-07-12 18:10:25.870 ,0,0,,0,1.,4.8,0.,4.8,,0,0.,4.8,40.,4.8
1979-07-12 18:10:30.670 ,0,0,,0,0.,4.8,0.,4.8,,0,0.,4.8,25.,4.8
1979-07-12 18:10:35.470 ,0,0,,0,23.,4.8,2.,4.8,,0,0.,4.8,29.,4.8
1979-07-12 18:10:40.270 ,0,0,,0,94.,4.8,6.,4.8,,0,0.,4.8,39.,4.8
1979-07-12 18:10:45.070 ,0,0,,0,96.,4.8,12.,4.8,,0,0.,4.8,35.,4.8
1979-07-12 18:10:49.870 ,0,0,,0,74.,4.8,11.,4.8,,0,0.,4.8,35.,4.8
1979-07-12 18:10:54.670 ,0,0,,0,82.,4.8,10.,4.8,,0,0.,4.8,45.,4.8
1979-07-12 18:10:59.470 ,0,0,,0,78.,4.8,9.,4.8,,0,0.,4.8,27.,4.8
1979-07-12 18:11:04.270 ,0,0,,0,1.,4.8,0.,4.8,,0,0.,4.8,37.,4.8
1979-07-12 18:11:09.070 ,0,0,,0,1.,4.8,0.,4.8,,0,0.,4.8,40.,4.8
1979-07-12 18:11:13.870 ,0,0,,0,0.,4.8,0.,4.8,,0,0.,4.8,30.,4.8
1979-07-12 18:11:18.670 ,0,0,,0,0.,4.8,0.,4.8,,0,0.,4.8,42.,4.8
1979-07-12 18:11:23.470 ,0,0,,0,12.,4.8,2.,4.8,,0,0.,4.8,28.,4.8
1979-07-12 18:11:28.270 ,0,0,,0,100.,4.8,11.,4.8,,0,0.,4.8,56.,4.8
1979-07-12 18:11:33.070 ,0,0,,0,88.,4.8,12.,4.8,,0,0.,4.8,44.,4.8
1979-07-12 18:11:37.870 ,0,0,,0,84.,4.8,4.,4.8,,0,0.,4.8,29.,4.8
1979-07-12 18:11:42.670 ,0,0,,0,90.,4.8,10.,4.8,,0,0.,4.8,37.,4.8
1979-07-12 18:11:47.470 ,0,0,,0,80.,4.8,10.,4.8,,0,0.,4.8,40.,4.8
1979-07-12 18:11:52.270 ,0,0,,0,0.,4.8,0.,4.8,,0,0.,4.8,40.,4.8
1979-07-12 18:11:57.070 ,0,0,,0,1.,4.8,0.,4.8,,0,0.,4.8,40.,4.8
1979-07-12 18:12:01.870 ,1,0,,0,0.,4.8,0.,4.8,,0,0.,4.8,34.,4.8
1979-07-12 18:12:06.670 ,1,0,,0,1.,4.8,0.,4.8,,0,0.,4.8,27.,4.8
1979-07-12 18:12:11.470 ,1,0,,0,20.,4.8,2.,4.8,,0,0.,4.8,37.,4.8
1979-07-12 18:12:16.270 ,1,0,,0,102.,4.8,13.,4.8,,0,0.,4.8,50.,4.8
1979-07-12 18:12:21.070 ,1,0,,0,106.,4.8,10.,4.8,,0,0.,4.8,46.,4.8
1979-07-12 18:12:25.870 ,1,0,,0,128.,4.8,16.,4.8,,0,0.,4.8,47.,4.8
1979-07-12 18:12:30.670 ,1,0,,0,114.,4.8,11.,4.8,,0,0.,4.8,42.,4.8
1979-07-12 18:12:35.470 ,1,0,,0,122.,4.8,9.,4.8,,0,0.,4.8,49.,4.8
1979-07-12 18:12:40.270 ,1,0,,0,0.,4.8,0.,4.8,,0,0.,4.8,46.,4.8
1979-07-12 18:12:45.070 ,1,0,,0,1.,4.8,0.,4.8,,0,0.,4.8,37.,4.8
1979-07-12 18:12:49.870 ,2,0,,0,0.,4.8,0.,4.8,,0,0.,4.8,46.,4.8
1979-07-12 18:12:54.670 ,2,0,,0,0.,4.8,0.,4.8,,0,0.,4.8,45.,4.8
1979-07-12 18:12:59.470 ,2,0,,0,14.,4.8,3.,4.8,,0,0.,4.8,64.,4.8
1979-07-12 18:13:04.270 ,2,0,,0,136.,4.8,15.,4.8,,0,0.,4.8,51.,4.8
1979-07-12 18:13:09.070 ,2,0,,0,140.,4.8,18.,4.8,,0,0.,4.8,49.,4.8
1979-07-12 18:13:13.870 ,2,0,,0,116.,4.8,13.,4.8,,0,0.,4.8,58.,4.8
1979-07-12 18:13:18.670 ,2,0,,0,144.,4.8,20.,4.8,,0,0.,4.8,50.,4.8
1979-07-12 18:13:23.470 ,2,0,,0,116.,4.8,10.,4.8,,0,0.,4.8,66.,4.8
1979-07-12 18:13:28.270 ,2,0,,0,0.,4.8,0.,4.8,,0,0.,4.8,64.,4.8
1979-07-12 18:13:33.070 ,2,0,,0,0.,4.8,0.,4.8,,0,0.,4.8,61.,4.8
1979-07-12 18:13:37.870 ,3,0,,0,1.,4.8,0.,4.8,,0,0.,4.8,64.,4.8
1979-07-12 18:13:42.670 ,3,0,,0,1.,4.8,0.,4.8,,0,0.,4.8,60.,4.8
1979-07-12 18:13:47.470 ,3,0,,0,24.,4.8,5.,4.8,,0,0.,4.8,68.,4.8
1979-07-12 18:13:52.270 ,3,0,,0,152.,4.8,18.,4.8,,0,0.,4.8,60.,4.8
1979-07-12 18:13:57.070 ,3,0,,0,188.,4.8,24.,4.8,,0,0.,4.8,78.,4.8
1979-07-12 18:14:01.870 ,3,0,,0,168.,4.8,20.,4.8,,0,0.,4.8,86.,4.8
1979-07-12 18:14:06.670 ,3,0,,0,176.,4.8,14.,4.8,,0,0.,4.8,76.,4.8
1979-07-12 18:14:11.470 ,3,0,,0,128.,4.8,14.,4.8,,0,0.,4.8,76.,4.8
1979-07-12 18:14:16.270 ,3,0,,0,0.,4.8,0.,4.8,,0,0.,4.8,94.,4.8
1979-07-12 18:14:21.070 ,3,0,,0,1.,4.8,0.,4.8,,0,0.,4.8,70.,4.8
1979-07-12 18:14:25.870 ,4,0,,0,0.,4.8,0.,4.8,,0,0.,4.8,76.,4.8
1979-07-12 18:14:30.670 ,4,0,,0,0.,4.8,0.,4.8,,0,0.,4.8,70.,4.8
1979-07-12 18:14:35.470 ,4,0,,0,32.,4.8,1.,4.8,,0,0.,4.8,82.,4.8
1979-07-12 18:14:40.270 ,4,0,,0,196.,4.8,26.,4.8,,0,0.,4.8,98.,4.8
1979-07-12 18:14:45.070 ,4,0,,0,188.,4.8,23.,4.8,,0,0.,4.8,86.,4.8
1979-07-12 18:14:49.870 ,4,0,,0,220.,4.8,37.,4.8,,0,0.,4.8,90.,4.8
1979-07-12 18:14:54.670 ,4,0,,0,220.,4.8,30.,4.8,,0,0.,4.8,102.,4.8
1979-07-12 18:14:59.470 ,4,0,,0,156.,4.8,24.,4.8,,0,0.,4.8,86.,4.8
1979-07-12 18:15:04.270 ,4,0,,0,1.,4.8,0.,4.8,,0,0.,4.8,114.,4.8
1979-07-12 18:15:09.070 ,4,0,,0,0.,4.8,0.,4.8,,0,0.,4.8,86.,4.8
1979-07-12 18:15:13.870 ,5,0,,0,1.,4.8,0.,4.8,,0,0.,4.8,80.,4.8
1979-07-12 18:15:18.670 ,5,0,,0,0.,4.8,0.,4.8,,0,0.,4.8,88.,4.8
1979-07-12 18:15:23.470 ,5,0,,0,31.,4.8,3.,4.8,,0,0.,4.8,108.,4.8
1979-07-12 18:15:28.270 ,5,0,,0,236.,4.8,30.,4.8,,0,0.,4.8,92.,4.8
1979-07-12 18:15:33.070 ,5,0,,0,216.,4.8,27.,4.8,,0,0.,4.8,106.,4.8
1979-07-12 18:15:37.870 ,5,0,,0,240.,4.8,23.,4.8,,0,0.,4.8,90.,4.8
1979-07-12 18:15:42.670 ,5,0,,0,244.,4.8,31.,4.8,,0,0.,4.8,90.,4.8
1979-07-12 18:15:47.470 ,5,0,,0,192.,4.8,19.,4.8,,0,0.,4.8,114.,4.8
1979-07-12 18:15:52.270 ,5,0,,0,0.,4.8,0.,4.8,,0,0.,4.8,94.,4.8
1979-07-12 18:15:57.070 ,5,0,,0,0.,4.8,0.,4.8,,0,0.,4.8,106.,4.8
1979-07-12 18:16:01.870 ,6,0,,0,1.,4.8,0.,4.8,,0,0.,4.8,98.,4.8
1979-07-12 18:16:06.670 ,6,0,,0,0.,4.8,0.,4.8,,0,0.,4.8,94.,4.8
1979-07-12 18:16:11.470 ,6,0,,0,29.,4.8,5.,4.8,,0,0.,4.8,82.,4.8
1979-07-12 18:16:16.270 ,6,0,,0,196.,4.8,26.,4.8,,0,0.,4.8,84.,4.8
1979-07-12 18:16:21.070 ,6,0,,0,184.,4.8,21.,4.8,,0,0.,4.8,63.,4.8
1979-07-12 18:16:25.870 ,6,0,,0,228.,4.8,34.,4.8,,0,0.,4.8,90.,4.8
1979-07-12 18:16:30.670 ,6,0,,0,188.,4.8,29.,4.8,,0,0.,4.8,80.,4.8
1979-07-12 18:16:35.470 ,6,0,,0,176.,4.8,30.,4.8,,0,0.,4.8,94.,4.8
1979-07-12 18:16:40.270 ,6,0,,0,0.,4.8,0.,4.8,,0,0.,4.8,86.,4.8
1979-07-12 18:16:45.070 ,6,0,,0,0.,4.8,0.,4.8,,0,0.,4.8,88.,4.8
1979-07-12 18:16:49.870 ,7,0,,0,0.,4.8,0.,4.8,,0,0.,4.8,74.,4.8
1979-07-12 18:16:54.670 ,7,0,,0,1.,4.8,0.,4.8,,0,0.,4.8,49.,4.8
1979-07-12 18:16:59.470 ,7,0,,0,5.,4.8,0.,4.8,,0,0.,4.8,0.,4.8
1979-07-12 18:17:04.270 ,7,0,,0,8.,4.8,0.,4.8,,0,0.,4.8,0.,4.8
1979-07-12 18:17:09.070 ,7,0,,0,6.,4.8,0.,4.8,,0,0.,4.8,0.,4.8
1979-07-12 18:17:13.870 ,7,0,,0,12.,4.8,0.,4.8,,0,0.,4.8,0.,4.8
1979-07-12 18:17:18.670 ,7,0,,0,11.,4.8,0.,4.8,,0,0.,4.8,0.,4.8
1979-07-12 18:17:23.470 ,7,0,,0,8.,4.8,0.,4.8,,0,0.,4.8,0.,4.8
1979-07-12 18:17:28.270 ,7,0,,0,0.,4.8,0.,4.8,,0,0.,4.8,0.,4.8
1979-07-12 18:17:33.070 ,7,0,,0,1.,4.8,0.,4.8,,0,0.,4.8,0.,4.8
1979-07-12 18:17:37.870 ,7,0,,0,1.,4.8,0.,4.8,,0,0.,4.8,0.,4.8
1979-07-12 18:17:42.670 ,7,0,,0,1.,4.8,0.,4.8,,0,0.,4.8,0.,4.8
1979-07-12 18:17:47.470 ,7,0,,0,1.,4.8,0.,4.8,,0,0.,4.8,0.,4.8
1979-07-12 18:17:52.270 ,7,0,,0,5.,4.8,0.,4.8,,0,0.,4.8,0.,4.8
1979-07-12 18:17:57.070 ,7,0,,0,12.,4.8,0.,4.8,,0,0.,4.8,0.,4.8
1979-07-12 18:18:01.870 ,7,0,,0,13.,4.8,0.,4.8,,0,0.,4.8,0.,4.8
1979-07-12 18:18:06.670 ,7,0,,0,5.,4.8,0.,4.8,,0,0.,4.8,0.,4.8
1979-07-12 18:18:11.470 ,7,0,,0,3.,4.8,0.,4.8,,0,0.,4.8,0.,4.8
1979-07-12 18:18:16.270 ,7,0,,0,2.,4.8,0.,4.8,,0,0.,4.8,0.,4.8
1979-07-12 18:18:21.070 ,7,0,,0,0.,4.8,0.,4.8,,0,0.,4.8,0.,4.8
1979-07-12 18:18:25.870 ,6,0,,0,0.,4.8,0.,4.8,,0,0.,4.8,0.,4.8
1979-07-12 18:18:30.670 ,6,0,,0,1.,4.8,0.,4.8,,0,0.,4.8,14.,4.8
1979-07-12 18:18:35.470 ,6,0,,0,27.,4.8,2.,4.8,,0,0.,4.8,78.,4.8
1979-07-12 18:18:40.270 ,6,0,,0,220.,4.8,37.,4.8,,0,0.,4.8,68.,4.8
1979-07-12 18:18:45.070 ,6,0,,0,192.,4.8,26.,4.8,,0,0.,4.8,84.,4.8
1979-07-12 18:18:49.870 ,6,0,,0,184.,4.8,23.,4.8,,0,0.,4.8,78.,4.8
1979-07-12 18:18:54.670 ,6,0,,0,212.,4.8,34.,4.8,,0,0.,4.8,72.,4.8
1979-07-12 18:18:59.470 ,6,0,,0,144.,4.8,14.,4.8,,0,0.,4.8,76.,4.8
1979-07-12 18:19:04.270 ,6,0,,0,0.,4.8,0.,4.8,,0,0.,4.8,68.,4.8
1979-07-12 18:19:09.070 ,6,0,,0,0.,4.8,0.,4.8,,0,0.,4.8,90.,4.8
1979-07-12 18:20:01.870 ,0,0,,0,0.,4.8,0.,4.8,,0,0.,4.8,84.,4.8
1979-07-12 18:20:06.670 ,0,0,,0,0.,4.8,0.,4.8,,0,0.,4.8,98.,4.8
1979-07-12 18:20:11.470 ,0,0,,0,36.,4.8,2.,4.8,,0,0.,4.8,82.,4.8
1979-07-12 18:20:16.270 ,0,0,,0,200.,4.8,22.,4.8,,0,0.,4.8,82.,4.8
1979-07-12 18:20:21.070 ,0,0,,0,192.,4.8,22.,4.8,,0,0.,4.8,78.,4.8
1979-07-12 18:20:25.870 ,0,0,,0,,0,,0,,0,,0,,0
1979-07-12 18:20:30.670 ,0,0,,0,220.,4.8,28.,4.8,,0,0.,4.8,80.,4.8
1979-07-12 18:20:35.470 ,0,0,,0,192.,4.8,19.,4.8,,0,0.,4.8,96.,4.8
1979-07-12 18:20:40.270 ,0,0,,0,0.,4.8,0.,4.8,,0,0.,4.8,86.,4.8
1979-07-12 18:20:45.070 ,0,0,,0,0.,4.8,0.,4.8,,0,0.,4.8,82.,4.8
1979-07-12 18:20:49.870 ,3,0,,0,0.,4.8,0.,4.8,,0,0.,4.8,96.,4.8
1979-07-12 18:20:54.670 ,3,0,,0,2.,4.8,0.,4.8,,0,0.,4.8,68.,4.8
1979-07-12 18:20:59.470 ,3,0,,0,25.,4.8,2.,4.8,,0,0.,4.8,70.,4.8
1979-07-12 18:21:04.270 ,3,0,,0,156.,4.8,26.,4.8,,0,0.,4.8,84.,4.8
1979-07-12 18:21:09.070 ,3,0,,0,168.,4.8,20.,4.8,,0,0.,4.8,72.,4.8
1979-07-12 18:21:13.870 ,3,0,,0,156.,4.8,20.,4.8,,0,0.,4.8,66.,4.8
1979-07-12 18:21:18.670 ,3,0,,0,148.,4.8,21.,4.8,,0,0.,4.8,64.,4.8
1979-07-12 18:21:23.470 ,3,0,,0,140.,4.8,20.,4.8,,0,0.,4.8,60.,4.8
1979-07-12 18:21:28.270 ,3,0,,0,0.,4.8,0.,4.8,,0,0.,4.8,70.,4.8
1979-07-12 18:21:33.070 ,3,0,,0,0.,4.8,0.,4.8,,0,0.,4.8,64.,4.8
1979-07-12 18:21:37.870 ,2,0,,0,1.,4.8,0.,4.8,,0,0.,4.8,80.,4.8
1979-07-12 18:21:42.670 ,2,0,,0,0.,4.8,0.,4.8,,0,0.,4.8,60.,4.8
1979-07-12 18:21:47.470 ,2,0,,0,12.,4.8,1.,4.8,,0,0.,4.8,64.,4.8
1979-07-12 18:21:52.270 ,2,0,,0,164.,4.8,27.,4.8,,0,0.,4.8,60.,4.8
1979-07-12 18:21:57.070 ,2,0,,0,136.,4.8,19.,4.8,,0,0.,4.8,52.,4.8
1979-07-12 18:22:01.870 ,2,0,,0,136.,4.8,15.,4.8,,0,0.,4.8,50.,4.8
1979-07-12 18:22:06.670 ,2,0,,0,132.,4.8,11.,4.8,,0,0.,4.8,55.,4.8
1979-07-12 18:22:11.470 ,2,0,,0,100.,4.8,15.,4.8,,0,0.,4.8,56.,4.8
1979-07-12 18:22:16.270 ,2,0,,0,0.,4.8,0.,4.8,,0,0.,4.8,44.,4.8
1979-07-12 18:22:21.070 ,2,0,,0,0.,4.8,0.,4.8,,0,0.,4.8,53.,4.8
1979-07-12 18:22:25.870 ,1,0,,0,0.,4.8,0.,4.8,,0,0.,4.8,47.,4.8
1979-07-12 18:22:30.670 ,1,0,,0,0.,4.8,0.,4.8,,0,0.,4.8,47.,4.8
1979-07-12 18:22:35.470 ,1,0,,0,11.,4.8,2.,4.8,,0,0.,4.8,44.,4.8
1979-07-12 18:22:40.270 ,1,0,,0,114.,4.8,14.,4.8,,0,0.,4.8,49.,4.8
1979-07-12 18:22:45.070 ,1,0,,0,106.,4.8,13.,4.8,,0,0.,4.8,40.,4.8
1979-07-12 18:22:49.870 ,1,0,,0,122.,4.8,18.,4.8,,0,0.,4.8,49.,4.8
1979-07-12 18:22:54.670 ,1,0,,0,108.,4.8,17.,4.8,,0,0.,4.8,48.,4.8
1979-07-12 18:22:59.470 ,1,0,,0,102.,4.8,14.,4.8,,0,0.,4.8,46.,4.8
1979-07-12 18:23:04.270 ,1,0,,0,0.,4.8,0.,4.8,,0,0.,4.8,46.,4.8
1979-07-12 18:23:09.070 ,1,0,,0,0.,4.8,0.,4.8,,0,0.,4.8,43.,4.8
1979-07-12 18:23:13.870 ,0,0,,0,1.,4.8,0.,4.8,,0,0.,4.8,55.,4.8
1979-07-12 18:23:18.670 ,0,0,,0,0.,4.8,0.,4.8,,0,0.,4.8,36.,4.8
1979-07-12 18:23:23.470 ,0,0,,0,15.,4.8,2.,4.8,,0,0.,4.8,50.,4.8
1979-07-12 18:23:28.270 ,0,0,,0,92.,4.8,6.,4.8,,0,0.,4.8,31.,4.8
1979-07-12 18:23:33.070 ,0,0,,0,116.,4.8,11.,4.8,,0,0.,4.8,28.,4.8
1979-07-12 18:23:37.870 ,0,0,,0,104.,4.8,12.,4.8,,0,0.,4.8,41.,4.8
1979-07-12 18:23:42.670 ,0,0,,0,90.,4.8,14.,4.8,,0,0.,4.8,29.,4.8
1979-07-12 18:23:47.470 ,0,0,,0,84.,4.8,12.,4.8,,0,0.,4.8,46.,4.8
1979-07-12 18:23:52.270 ,0,0,,0,0.,4.8,0.,4.8,,0,0.,4.8,42.,4.8
1979-07-12 18:23:57.070 ,0,0,,0,0.,4.8,0.,4.8,,0,0.,4.8,31.,4.8
1979-07-12 18:24:01.870 ,0,0,,0,0.,4.8,0.,4.8,,0,0.,4.8,60.,4.8
1979-07-12 18:24:06.670 ,0,0,,0,0.,4.8,0.,4.8,,0,0.,4.8,37.,4.8
1979-07-12 18:24:11.470 ,0,0,,0,20.,4.8,2.,4.8,,0,0.,4.8,41.,4.8
1979-07-12 18:24:16.270 ,0,0,,0,102.,4.8,18.,4.8,,0,0.,4.8,38.,4.8
1979-07-12 18:24:21.070 ,0,0,,0,100.,4.8,13.,4.8,,0,0.,4.8,44.,4.8
1979-07-12 18:24:25.870 ,0,0,,0,114.,4.8,13.,4.8,,0,0.,4.8,42.,4.8
1979-07-12 18:24:30.670 ,0,0,,0,108.,4.8,15.,4.8,,0,0.,4.8,41.,4.8
1979-07-12 18:24:35.470 ,0,0,,0,86.,4.8,13.,4.8,,0,0.,4.8,30.,4.8
1979-07-12 18:24:40.270 ,0,0,,0,0.,4.8,0.,4.8,,0,0.,4.8,33.,4.8
1979-07-12 18:24:45.070 ,0,0,,0,1.,4.8,0.,4.8,,0,0.,4.8,41.,4.8
1979-07-12 18:24:49.870 ,1,0,,0,0.,4.8,0.,4.8,,0,0.,4.8,40.,4.8
1979-07-12 18:24:54.670 ,1,0,,0,0.,4.8,0.,4.8,,0,0.,4.8,43.,4.8
1979-07-12 18:24:59.470 ,1,0,,0,21.,4.8,3.,4.8,,0,0.,4.8,44.,4.8
1979-07-12 18:25:04.270 ,1,0,,0,102.,4.8,14.,4.8,,0,0.,4.8,50.,4.8
1979-07-12 18:25:09.070 ,1,0,,0,92.,4.8,12.,4.8,,0,0.,4.8,36.,4.8
1979-07-12 18:25:13.870 ,1,0,,0,102.,4.8,15.,4.8,,0,0.,4.8,31.,4.8
1979-07-12 18:25:18.670 ,1,0,,0,100.,4.8,13.,4.8,,0,0.,4.8,49.,4.8
1979-07-12 18:25:23.470 ,1,0,,0,72.,4.8,6.,4.8,,0,0.,4.8,43.,4.8
1979-07-12 18:25:28.270 ,1,0,,0,0.,4.8,0.,4.8,,0,0.,4.8,47.,4.8
1979-07-12 18:25:33.070 ,1,0,,0,0.,4.8,0.,4.8,,0,0.,4.8,44.,4.8
1979-07-12 18:25:37.870 ,2,0,,0,0.,4.8,0.,4.8,,0,0.,4.8,27.,4.8
1979-07-12 18:25:42.670 ,2,0,,0,0.,4.8,0.,4.8,,0,0.,4.8,47.,4.8
1979-07-12 18:25:47.470 ,2,0,,0,31.,4.8,4.,4.8,,0,0.,4.8,66.,4.8
1979-07-12 18:25:52.270 ,2,0,,0,120.,4.8,15.,4.8,,0,0.,4.8,55.,4.8
1979-07-12 18:25:57.070 ,2,0,,0,112.,4.8,12.,4.8,,0,0.,4.8,48.,4.8
1979-07-12 18:26:01.870 ,2,0,,0,148.,4.8,18.,4.8,,0,0.,4.8,54.,4.8
1979-07-12 18:26:06.670 ,2,0,,0,144.,4.8,24.,4.8,,0,0.,4.8,57.,4.8
1979-07-12 18:26:11.470 ,2,0,,0,108.,4.8,11.,4.8,,0,0.,4.8,54.,4.8
1979-07-12 18:26:16.270 ,2,0,,0,1.,4.8,0.,4.8,,0,0.,4.8,54.,4.8
1979-07-12 18:26:21.070 ,2,0,,0,0.,4.8,0.,4.8,,0,0.,4.8,57.,4.8
1979-07-12 18:26:25.870 ,3,0,,0,0.,4.8,0.,4.8,,0,0.,4.8,44.,4.8
1979-07-12 18:26:30.670 ,3,0,,0,0.,4.8,0.,4.8,,0,0.,4.8,43.,4.8
1979-07-12 18:26:35.470 ,3,0,,0,36.,4.8,3.,4.8,,0,0.,4.8,76.,4.8
1979-07-12 18:26:40.270 ,3,0,,0,148.,4.8,18.,4.8,,0,0.,4.8,66.,4.8
1979-07-12 18:26:45.070 ,3,0,,0,152.,4.8,12.,4.8,,0,0.,4.8,62.,4.8
1979-07-12 18:26:49.870 ,3,0,,0,164.,4.8,21.,4.8,,0,0.,4.8,60.,4.8
1979-07-12 18:26:54.670 ,3,0,,0,140.,4.8,21.,4.8,,0,0.,4.8,70.,4.8
1979-07-12 18:26:59.470 ,3,0,,0,126.,4.8,19.,4.8,,0,0.,4.8,66.,4.8
1979-07-12 18:27:04.270 ,3,0,,0,0.,4.8,0.,4.8,,0,0.,4.8,64.,4.8
1979-07-12 18:27:09.070 ,3,0,,0,0.,4.8,0.,4.8,,0,0.,4.8,66.,4.8
1979-07-12 18:27:13.870 ,4,0,,0,1.,4.8,0.,4.8,,0,0.,4.8,60.,4.8
1979-07-12 18:27:18.670 ,4,0,,0,1.,4.8,0.,4.8,,0,0.,4.8,60.,4.8
1979-07-12 18:27:23.470 ,4,0,,0,32.,4.8,5.,4.8,,0,0.,4.8,84.,4.8
1979-07-12 18:27:28.270 ,4,0,,0,176.,4.8,20.,4.8,,0,0.,4.8,76.,4.8
1979-07-12 18:27:33.070 ,4,0,,0,172.,4.8,23.,4.8,,0,0.,4.8,78.,4.8
1979-07-12 18:27:37.870 ,4,0,,0,164.,4.8,18.,4.8,,0,0.,4.8,80.,4.8
1979-07-12 18:27:42.670 ,4,0,,0,180.,4.8,22.,4.8,,0,0.,4.8,78.,4.8
1979-07-12 18:27:47.470 ,4,0,,0,168.,4.8,19.,4.8,,0,0.,4.8,80.,4.8
1979-07-12 18:27:52.270 ,4,0,,0,1.,4.8,0.,4.8,,0,0.,4.8,76.,4.8
1979-07-12 18:27:57.070 ,4,0,,0,1.,4.8,0.,4.8,,0,0.,4.8,88.,4.8
1979-07-12 18:28:01.870 ,5,0,,0,0.,4.8,0.,4.8,,0,0.,4.8,72.,4.8
1979-07-12 18:28:06.670 ,5,0,,0,1.,4.8,0.,4.8,,0,0.,4.8,63.,4.8
1979-07-12 18:28:11.470 ,5,0,,0,34.,4.8,4.,4.8,,0,0.,4.8,88.,4.8
1979-07-12 18:28:16.270 ,5,0,,0,188.,4.8,22.,4.8,,0,0.,4.8,90.,4.8
1979-07-12 18:28:21.070 ,5,0,,0,208.,4.8,22.,4.8,,0,0.,4.8,90.,4.8
1979-07-12 18:28:25.870 ,5,0,,0,184.,4.8,21.,4.8,,0,0.,4.8,76.,4.8
1979-07-12 18:28:30.670 ,5,0,,0,200.,4.8,28.,4.8,,0,0.,4.8,84.,4.8
1979-07-12 18:28:35.470 ,5,0,,0,156.,4.8,21.,4.8,,0,0.,4.8,68.,4.8
1979-07-12 18:28:40.270 ,5,0,,0,0.,4.8,0.,4.8,,0,0.,4.8,88.,4.8
1979-07-12 18:28:45.070 ,5,0,,0,0.,4.8,0.,4.8,,0,0.,4.8,84.,4.8
1979-07-12 18:28:49.870 ,6,0,,0,0.,4.8,0.,4.8,,0,0.,4.8,80.,4.8
1979-07-12 18:28:54.670 ,6,0,,0,0.,4.8,0.,4.8,,0,0.,4.8,100.,4.8
1979-07-12 18:28:59.470 ,6,0,,0,21.,4.8,1.,4.8,,0,0.,4.8,78.,4.8
1979-07-12 18:29:04.270 ,6,0,,0,160.,4.8,25.,4.8,,0,0.,4.8,82.,4.8
1979-07-12 18:29:09.070 ,6,0,,0,152.,4.8,16.,4.8,,0,0.,4.8,53.,4.8
1979-07-12 18:29:13.870 ,6,0,,0,164.,4.8,17.,4.8,,0,0.,4.8,63.,4.8
1979-07-12 18:29:18.670 ,6,0,,0,156.,4.8,23.,4.8,,0,0.,4.8,57.,4.8
1979-07-12 18:29:23.470 ,6,0,,0,140.,4.8,18.,4.8,,0,0.,4.8,66.,4.8
1979-07-12 18:29:28.270 ,6,0,,0,1.,4.8,0.,4.8,,0,0.,4.8,78.,4.8
1979-07-12 18:29:33.070 ,6,0,,0,0.,4.8,0.,4.8,,0,0.,4.8,70.,4.8
1979-07-12 18:29:37.870 ,7,0,,0,1.,4.8,0.,4.8,,0,0.,4.8,66.,4.8
1979-07-12 18:29:42.670 ,7,0,,0,3.,4.8,0.,4.8,,0,0.,4.8,54.,4.8
1979-07-12 18:29:47.470 ,7,0,,0,1.,4.8,0.,4.8,,0,0.,4.8,0.,4.8
1979-07-12 18:29:52.270 ,7,0,,0,3.,4.8,0.,4.8,,0,0.,4.8,0.,4.8
1979-07-12 18:29:57.070 ,7,0,,0,14.,4.8,0.,4.8,,0,0.,4.8,0.,4.8